Temperature
17 19 17 15 15 17 17 17 15 11 9 9 8 6 6 5 5 5 5 4 4 3 2 1 -0 -1 -1 -1 -1 -1 -1 -2 -2 -2 -2 -2 -2 -2 -3 -2 -1 -1 -1 -2
19 16 14 14 15 16 17 16 13 9 8 8 7 6 6 5 5 4 4 4 3 2 2 0 -1 -2 -3 -3 -3 -3 -3 -4 -4 -4 -4 -4 -4 -4 -4 -4 -3 -2 -2 -3
17 15 14 15 16 16 16 16 15 11 8 8 7 6 6 5 5 4 4 3 3 2 1 -0 -1 -3 -3 -4 -4 -4 -4 -5 -5 -5 -5 -5 -5 -5 -5 -5 -4 -4 -4 -4
15 14 14 15 14 15 16 13 13 11 10 10 9 12 7 6 6 5 5 4 3 1 0 -1 -2 -3 -4 -5 -5 -5 -6 -6 -6 -6 -7 -7 -7 -7 -7 -7 -7 -6 -5 -5
14 14 14 14 13 13 14 11 11 11 12 11 10 10 10 6 6 6 5 4 3 1 -0 -2 -3 -4 -5 -6 -6 -6 -6 -7 -7 -7 -8 -8 -8 -8 -8 -8 -7 -7 -6 -6
13 12 12 12 12 11 11 12 11 11 12 13 12 11 11 7 6 5 5 4 3 1 -1 -2 -3 -5 -6 -6 -7 -7 -7 -8 -8 -8 -8 -9 -9 -9 -9 -9 -8 -8 -8 -7
14 13 12 11 14 14 14 15 17 16 16 15 10 11 10 6 5 4 4 3 2 0 -1 -3 -4 -5 -6 -7 -8 -8 -8 -8 -8 -9 -9 -9 -10 -10 -10 -10 -10 -9 -9 -9
16 15 12 12 12 12 13 14 15 15 16 15 11 11 7 6 4 4 3 2 1 -0 -2 -3 -5 -6 -7 -8 -8 -9 -9 -9 -10 -10 -10 -10 -10 -11 -11 -11 -11 -10 -10 -10
15 14 12 10 10 11 13 13 12 13 13 12 13 8 5 5 5 4 3 2 1 -1 -3 -4 -5 -6 -7 -8 -8 -9 -10 -10 -10 -11 -11 -11 -11 -11 -12 -12 -11 -11 -11 -10
12 13 12 11 10 10 11 11 12 13 13 14 14 11 9 5 5 4 3 2 0 -2 -3 -4 -5 -6 -7 -8 -9 -9 -10 -10 -11 -11 -11 -12 -12 -12 -12 -12 -12 -12 -11 -11
10 12 13 12 12 12 11 11 11 11 11 12 12 12 6 5 4 3 3 1 -1 -2 -4 -5 -6 -7 -8 -9 -9 -9 -10 -10 -11 -11 -11 -12 -12 -12 -13 -13 -13 -13 -12 -12
9 11 14 12 9 8 10 10 11 12 12 10 10 10 5 4 3 3 2 0 -1 -3 -4 -5 -6 -7 -8 -9 -10 -10 -10 -11 -11 -12 -12 -12 -13 -13 -13 -13 -13 -13 -13 -12
9 11 15 15 11 9 9 9 9 9 9 9 9 10 4 4 4 3 2 -0 -2 -3 -5 -6 -7 -8 -9 -10 -10 -10 -11 -11 -12 -12 -12 -13 -13 -13 -14 -14 -14 -13 -13 -13
8 11 13 15 13 10 9 8 8 8 9 9 9 9 6 5 4 3 1 -1 -3 -4 -5 -6 -7 -8 -9 -10 -10 -11 -11 -12 -12 -13 -13 -13 -13 -14 -14 -14 -14 -14 -13 -13
8 10 10 9 7 7 7 8 7 7 8 8 8 6 6 4 3 2 0 -2 -3 -5 -6 -7 -8 -9 -10 -10 -10 -11 -11 -12 -12 -13 -13 -13 -13 -14 -14 -14 -14 -14 -14 -14
8 9 8 9 6 6 6 7 6 6 6 6 6 6 5 3 3 2 -1 -3 -5 -6 -7 -8 -9 -9 -10 -10 -10 -10 -11 -11 -12 -13 -13 -13 -13 -14 -14 -14 -14 -14 -14 -14
7 9 10 11 8 7 9 8 6 6 6 6 5 6 4 3 2 0 -3 -5 -6 -7 -8 -8 -9 -9 -10 -9 -9 -10 -11 -11 -12 -12 -13 -13 -13 -14 -14 -14 -14 -15 -14 -14
7 8 8 9 9 9 9 5 5 5 5 5 4 4 3 2 0 -3 -5 -6 -7 -8 -8 -9 -8 -9 -9 -9 -9 -10 -10 -11 -12 -12 -13 -13 -14 -14 -14 -15 -15 -15 -15 -15
5 7 8 7 9 11 7 5 4 5 5 4 4 3 2 1 -0 -3 -5 -7 -8 -8 -8 -8 -8 -8 -9 -9 -10 -10 -11 -12 -12 -13 -13 -14 -14 -15 -15 -15 -14 -14 -15 -14
4 6 7 5 8 11 9 5 3 4 5 3 2 2 1 -0 1 -1 -6 -7 -7 -7 -7 -7 -8 -9 -9 -9 -10 -10 -10 -11 -12 -13 -13 -14 -15 -15 -15 -15 -15 -15 -14 -14
5 6 6 6 7 10 6 3 3 5 6 3 2 1 -0 -1 -2 -5 -6 -7 -7 -7 -7 -7 -8 -8 -9 -9 -10 -10 -10 -11 -12 -12 -13 -14 -14 -15 -15 -15 -15 -15 -15 -14
9 8 7 6 7 8 3 2 5 6 2 2 1 -1 -2 -3 -5 -6 -6 -6 -6 -6 -7 -7 -7 -8 -9 -9 -10 -10 -11 -11 -11 -12 -13 -13 -14 -14 -15 -15 -15 -15 -15 -14
7 9 9 8 9 5 3 3 3 2 2 1 -0 -1 -3 -4 -5 -6 -6 -6 -6 -7 -7 -7 -7 -8 -9 -9 -10 -10 -11 -11 -11 -12 -13 -13 -14 -14 -14 -14 -14 -14 -14 -14
6 3 5 6 6 3 2 1 2 2 1 1 -1 -2 -3 -4 -5 -5 -6 -6 -6 -7 -7 -7 -8 -8 -9 -9 -10 -10 -11 -11 -11 -12 -13 -14 -14 -14 -14 -14 -14 -14 -14 -14
8 4 4 5 4 1 1 1 1 1 1 0 -1 -3 -4 -4 -5 -5 -6 -6 -6 -7 -7 -7 -8 -8 -9 -9 -9 -10 -10 -11 -12 -13 -13 -14 -14 -14 -14 -14 -14 -14 -14 -14
4 4 6 8 5 4 2 1 2 1 1 -1 -2 -3 -4 -4 -5 -6 -6 -6 -6 -6 -7 -7 -8 -8 -9 -9 -9 -9 -10 -11 -12 -13 -13 -14 -13 -14 -14 -14 -14 -14 -14 -14
Wind_Speed
7 9 8 8 5 3 4 5 5 4 4 6 12 14 9 6 7 9 11 12 14 14 14 15 17 19 19 19 20 21 22 21 19 17 17 17 17 16 15 18 22 22 22 22
6 10 8 5 3 5 6 5 4 6 5 5 11 9 7 5 7 8 10 12 14 15 16 16 17 18 18 18 19 20 21 20 19 17 16 15 16 14 16 19 21 22 24 23
10 5 5 6 7 3 2 2 2 6 6 6 8 8 9 6 3 5 8 10 13 15 16 16 17 18 18 18 19 18 20 20 19 21 17 15 14 14 15 17 15 22 25 23
8 5 4 6 7 5 1 2 2 9 8 4 9 5 11 9 3 4 8 12 14 15 15 15 16 18 18 17 16 18 19 19 19 20 17 19 16 16 18 16 16 22 23 23
5 4 6 6 4 5 4 3 2 8 6 3 7 7 5 8 5 4 9 12 14 15 14 15 15 16 16 17 16 17 18 18 19 20 19 18 17 16 16 18 20 19 20 21
5 3 4 4 3 1 2 2 4 5 5 5 4 7 3 5 1 5 10 13 15 15 14 13 14 14 15 16 15 16 18 18 19 19 19 19 20 21 21 21 20 18 16 17
3 3 4 4 3 1 4 4 4 3 4 2 3 5 0 8 4 6 11 14 15 14 13 13 14 15 16 17 17 17 18 19 20 20 20 20 20 20 20 20 20 20 17 17
1 1 5 6 5 5 5 6 5 6 7 5 3 3 5 6 3 6 10 13 14 14 13 13 14 14 15 17 17 18 19 19 20 20 20 19 19 16 16 19 19 18 16 17
3 1 2 4 4 3 2 2 3 4 6 7 5 2 5 4 3 8 12 14 15 13 12 13 14 14 16 17 17 18 19 19 19 20 20 19 19 18 19 19 18 17 17 19
2 2 1 1 2 3 3 1 2 4 7 8 7 4 2 3 4 10 13 15 15 12 11 13 13 14 15 16 16 17 18 18 18 19 18 16 18 18 18 18 20 20 21 22
1 2 1 1 1 1 1 1 0 2 4 6 9 3 6 3 5 10 13 15 14 12 12 14 13 14 15 15 16 16 17 18 18 18 18 18 18 18 18 18 19 20 20 21
1 2 3 1 2 1 1 1 2 5 5 5 7 2 8 4 6 9 13 14 12 11 12 14 14 14 15 16 16 17 17 17 17 17 18 18 18 18 19 19 19 20 20 20
1 2 5 2 2 3 2 2 2 3 5 6 5 2 6 3 8 12 14 14 11 12 14 13 14 14 15 16 16 16 16 17 17 17 17 17 18 19 19 19 20 20 20 20
1 3 4 6 5 0 3 5 5 6 5 6 8 8 4 7 11 14 14 12 11 13 14 14 14 14 15 15 15 16 16 16 16 17 17 17 18 19 19 19 19 19 19 20
1 3 4 6 3 4 7 9 9 10 9 8 7 7 10 7 11 13 13 10 12 14 14 14 15 15 15 16 15 15 16 16 16 16 17 17 17 18 18 18 19 19 19 19
1 2 3 4 2 5 8 10 10 10 9 10 10 10 2 8 11 14 11 9 12 14 14 14 15 16 16 16 16 16 16 16 16 16 16 16 17 17 18 18 18 19 19 19
1 2 3 4 4 7 8 6 9 6 7 6 7 5 5 10 13 13 7 8 12 14 14 15 15 15 15 16 15 16 16 16 16 16 16 16 17 17 18 18 17 18 18 18
2 2 2 5 6 6 2 2 5 6 6 7 6 5 5 9 10 4 3 8 12 12 13 14 13 14 15 14 15 15 16 16 16 16 16 16 17 17 18 18 17 17 16 16
0 2 2 2 5 9 2 5 5 5 5 6 5 3 6 8 9 2 1 7 9 10 11 12 13 14 14 14 15 16 16 16 16 17 17 17 17 17 18 18 17 16 16 15
2 2 3 2 4 6 1 6 5 3 4 7 4 4 6 7 8 4 3 6 8 10 10 11 13 13 13 14 15 16 17 17 17 18 18 18 18 17 17 17 17 16 15 15
3 4 5 6 6 8 5 8 7 3 2 8 4 2 3 3 3 3 4 6 8 9 11 12 12 12 12 13 15 16 17 17 18 19 19 18 18 17 16 15 15 15 14 14
7 6 6 5 6 6 11 10 7 1 7 6 3 2 1 1 1 2 4 7 9 10 11 12 12 13 13 13 14 16 17 18 18 18 18 18 17 16 14 15 14 14 13 13
8 7 4 9 4 3 11 6 4 7 6 5 4 4 4 3 2 2 4 6 8 10 10 11 12 14 14 14 14 16 17 18 18 18 18 17 17 16 15 15 14 13 12 11
6 4 5 7 7 6 9 7 7 6 6 7 7 7 6 5 3 1 3 6 7 9 10 11 12 14 14 15 15 15 16 17 18 18 17 16 16 16 15 13 12 12 11 11
6 9 6 8 4 5 9 10 9 8 10 10 9 8 7 6 4 0 3 5 7 8 9 10 11 13 15 15 16 16 16 17 18 18 16 16 15 15 14 14 12 13 11 12
8 10 9 6 8 8 9 14 13 12 11 11 10 9 7 5 4 1 3 4 6 8 9 10 11 13 14 15 15 16 17 17 17 16 16 14 14 14 13 13 13 15 15 16
Wind_Direction
37 58 42 11 357 28 91 118 118 102 105 105 129 135 131 113 75 55 41 29 20 14 11 9 6 4 0 360 359 357 354 353 354 352 347 344 341 339 339 339 336 336 335 335
84 52 22 14 59 114 111 119 124 117 116 123 145 146 143 115 72 49 33 22 13 3 1 1 1 0 358 358 358 355 353 349 352 350 343 339 334 334 336 336 334 334 334 333
83 48 22 56 69 119 122 328 243 169 129 143 159 185 190 163 105 56 35 21 12 3 355 354 356 358 357 357 357 353 351 348 349 347 343 340 338 338 341 340 336 334 331 329
73 47 43 61 51 5 233 1 262 171 179 190 208 258 186 189 181 29 19 12 4 359 353 353 355 356 355 353 352 350 348 348 348 347 346 344 342 341 338 335 331 331 330 328
81 37 34 43 21 356 347 356 195 191 214 215 211 259 166 181 226 349 3 0 356 355 352 352 356 353 352 350 349 347 347 348 349 348 347 344 340 338 334 334 333 333 331 329
86 58 20 354 322 341 306 161 128 164 209 251 207 231 198 175 224 353 355 351 351 352 349 348 350 350 350 349 348 347 347 349 350 348 347 344 340 338 335 336 335 334 331 329
106 68 26 351 329 31 1 320 297 277 250 265 135 237 72 124 71 6 347 344 346 346 344 344 347 348 349 348 347 346 347 347 349 347 346 343 341 337 335 335 333 332 330 329
354 85 27 17 14 352 12 354 354 314 306 307 210 264 134 140 61 359 347 343 342 343 344 343 346 345 345 346 346 347 346 346 346 346 344 342 342 338 334 333 331 329 327 325
10 28 80 38 24 331 332 28 353 283 283 279 253 147 156 195 319 346 346 347 347 343 341 342 343 344 345 346 347 346 344 344 344 344 342 341 341 339 335 332 331 329 327 325
4 297 77 359 216 59 35 94 261 304 318 308 297 257 187 156 346 347 348 348 347 345 343 343 344 345 346 345 345 345 345 343 342 342 342 339 339 339 336 333 333 331 329 327
305 289 228 193 247 319 149 132 69 290 285 294 306 343 107 93 7 349 348 349 348 347 347 346 346 345 344 344 344 344 344 343 343 343 341 340 340 339 338 337 334 332 330 329
26 286 276 208 74 352 293 220 243 295 291 257 282 311 122 68 5 351 347 352 351 349 347 345 344 343 343 343 344 343 343 342 341 341 339 340 340 341 340 338 336 335 333 332
195 276 298 230 175 159 174 177 217 262 274 255 263 302 133 2 351 353 351 350 349 347 344 344 344 343 343 341 341 340 341 340 339 339 339 340 341 342 341 339 337 337 336 335
196 258 265 299 326 41 234 222 212 226 253 264 254 286 317 343 345 346 348 347 346 346 344 344 342 342 341 339 337 337 338 338 338 338 339 339 339 339 338 336 337 338 338 337
272 271 267 274 266 262 262 253 230 228 247 266 289 293 318 341 339 339 344 346 345 344 343 343 341 340 338 337 335 335 334 335 335 335 336 336 335 335 335 334 337 338 338 338
9 281 294 271 225 277 269 252 238 239 244 252 273 291 346 331 331 337 346 346 341 341 341 341 339 336 335 334 332 331 329 331 331 331 330 330 332 332 333 332 336 338 337 337
148 267 293 281 307 302 275 236 208 210 215 233 266 302 328 324 334 338 345 343 339 338 338 337 334 332 330 329 328 325 326 325 325 326 325 326 327 328 329 330 334 336 335 335
166 196 265 298 317 287 78 81 197 214 228 225 250 277 309 323 328 350 11 342 338 338 333 330 328 326 325 324 324 322 323 321 322 322 322 323 324 323 324 328 329 333 334 331
272 211 238 278 285 275 169 175 178 212 246 202 213 268 317 329 305 199 66 345 336 333 328 325 323 322 322 324 325 323 322 324 324 322 322 322 321 320 321 322 325 332 332 330
89 192 223 208 266 276 116 150 154 194 249 174 203 287 320 326 323 7 29 342 336 331 328 325 323 323 325 327 326 324 325 327 327 325 323 322 322 323 322 320 325 328 328 331
185 190 211 222 244 273 134 145 157 221 20 151 199 273 313 319 330 7 354 345 338 332 331 329 326 327 329 328 327 326 327 329 327 324 322 324 326 326 322 323 324 324 326 329
201 196 210 200 230 262 147 157 194 152 121 157 173 155 145 101 83 17 357 344 337 333 333 332 329 328 330 332 332 328 329 329 326 325 326 329 329 327 325 327 327 326 327 328
218 215 221 208 233 88 169 176 149 136 150 155 149 135 133 137 103 26 348 335 331 331 331 331 328 327 332 337 336 331 330 330 328 328 330 330 329 329 331 332 332 331 329 326
221 204 229 253 251 204 185 160 146 144 135 126 126 130 134 132 112 31 336 330 331 332 332 331 330 332 335 338 337 334 332 331 330 331 331 332 331 332 335 335 335 333 329 325
220 179 216 245 231 172 185 178 157 132 126 124 121 125 130 130 124 79 317 324 329 328 329 330 332 331 332 334 336 337 336 335 334 333 334 334 335 338 339 342 341 340 340 344
196 191 195 224 189 175 177 169 154 145 145 141 136 133 125 126 136 197 305 318 324 327 329 330 332 332 332 333 336 339 340 339 337 338 340 339 341 344 345 345 344 348 351 353
Height
1576 1577 1583 1587 1586 1583 1581 1584 1592 1605 1613 1613 1616 1621 1626 1628 1626 1625 1624 1622 1620 1618 1615 1610 1605 1599 1592 1586 1580 1573 1566 1560 1553 1545 1538 1532 1527 1522 1518 1514 1510 1505 1500 1495
1577 1586 1592 1590 1588 1586 1584 1587 1596 1610 1615 1614 1619 1623 1626 1627 1627 1626 1625 1623 1620 1617 1613 1609 1604 1598 1592 1586 1579 1572 1565 1559 1552 1545 1539 1532 1526 1520 1516 1510 1505 1501 1497 1492
1584 1595 1594 1591 1589 1587 1588 1588 1591 1602 1615 1617 1618 1620 1623 1625 1626 1625 1624 1623 1620 1616 1612 1608 1603 1597 1591 1585 1578 1571 1564 1558 1551 1544 1537 1530 1524 1518 1512 1506 1501 1497 1492 1488
1591 1596 1595 1592 1593 1591 1588 1595 1595 1601 1603 1602 1611 1591 1610 1619 1622 1622 1622 1620 1618 1615 1611 1607 1602 1596 1590 1583 1577 1570 1563 1556 1549 1542 1535 1529 1523 1516 1511 1505 1499 1494 1489 1484
1596 1598 1596 1594 1596 1596 1594 1598 1596 1598 1595 1597 1603 1599 1597 1616 1617 1619 1619 1618 1617 1614 1610 1605 1600 1594 1588 1582 1575 1568 1561 1554 1547 1541 1534 1528 1522 1516 1510 1503 1497 1490 1485 1480
1599 1602 1601 1600 1599 1599 1597 1597 1597 1596 1592 1586 1587 1593 1585 1609 1614 1618 1618 1617 1615 1612 1608 1604 1599 1593 1587 1581 1574 1567 1560 1553 1546 1539 1533 1526 1520 1514 1507 1500 1494 1487 1481 1476
1598 1601 1603 1602 1597 1595 1594 1588 1580 1576 1575 1573 1594 1592 1595 1613 1618 1619 1619 1617 1614 1611 1607 1602 1597 1592 1585 1579 1572 1565 1558 1550 1544 1537 1530 1524 1518 1512 1505 1499 1492 1485 1479 1473
1594 1596 1604 1605 1604 1602 1599 1595 1592 1588 1574 1571 1590 1588 1605 1616 1619 1620 1619 1616 1613 1609 1605 1601 1596 1590 1584 1577 1570 1563 1555 1548 1541 1534 1528 1522 1516 1509 1503 1497 1491 1484 1478 1471
1597 1600 1607 1608 1608 1606 1600 1600 1604 1598 1591 1591 1579 1598 1613 1617 1618 1618 1616 1614 1611 1607 1603 1600 1595 1589 1582 1575 1568 1561 1553 1546 1539 1532 1526 1519 1513 1506 1500 1494 1488 1482 1475 1469
1606 1603 1605 1608 1609 1609 1607 1606 1604 1598 1593 1581 1569 1585 1596 1613 1615 1616 1614 1612 1608 1605 1602 1598 1593 1587 1581 1574 1566 1559 1552 1545 1538 1531 1524 1517 1511 1504 1498 1492 1485 1479 1472 1466
1610 1605 1602 1605 1604 1603 1607 1608 1605 1604 1601 1593 1582 1583 1607 1614 1616 1615 1613 1610 1607 1604 1600 1596 1591 1585 1579 1572 1564 1557 1549 1543 1536 1529 1522 1516 1509 1503 1496 1490 1483 1477 1470 1463
1612 1607 1599 1603 1610 1612 1609 1607 1606 1603 1596 1600 1595 1596 1613 1615 1615 1614 1611 1608 1605 1603 1599 1594 1589 1583 1576 1569 1562 1554 1548 1541 1534 1527 1521 1515 1508 1501 1495 1488 1481 1475 1468 1461
1613 1608 1594 1591 1605 1611 1610 1610 1610 1610 1607 1602 1600 1595 1613 1612 1612 1611 1609 1607 1604 1601 1597 1592 1587 1581 1574 1567 1560 1553 1546 1539 1533 1526 1520 1513 1507 1500 1493 1486 1480 1474 1467 1460
1614 1608 1601 1595 1596 1605 1607 1610 1612 1611 1605 1599 1598 1596 1606 1608 1610 1609 1607 1606 1603 1600 1595 1590 1585 1579 1572 1565 1558 1551 1544 1538 1531 1525 1518 1512 1505 1499 1492 1485 1479 1473 1466 1459
1614 1608 1607 1607 1612 1612 1608 1607 1610 1610 1605 1603 1597 1604 1605 1609 1610 1608 1606 1604 1602 1598 1593 1588 1582 1576 1569 1562 1556 1549 1542 1536 1529 1523 1517 1510 1504 1497 1490 1484 1478 1472 1465 1458
1613 1610 1610 1604 1611 1611 1607 1604 1606 1607 1607 1606 1605 1605 1608 1609 1608 1606 1605 1603 1600 1596 1591 1586 1580 1574 1567 1560 1553 1547 1540 1534 1528 1522 1515 1508 1502 1495 1489 1483 1477 1471 1464 1458
1613 1610 1605 1597 1604 1604 1591 1595 1601 1603 1604 1604 1603 1604 1608 1607 1606 1605 1604 1602 1599 1595 1590 1584 1578 1572 1565 1559 1552 1545 1539 1532 1526 1520 1513 1506 1500 1493 1487 1482 1476 1469 1463 1457
1613 1611 1609 1603 1599 1595 1590 1602 1601 1602 1603 1604 1605 1606 1607 1607 1605 1603 1602 1600 1597 1593 1587 1582 1576 1570 1564 1557 1551 1544 1538 1531 1524 1518 1511 1504 1497 1491 1485 1480 1474 1468 1462 1456
1614 1612 1610 1610 1599 1584 1595 1600 1601 1601 1599 1603 1604 1605 1605 1605 1602 1601 1600 1598 1595 1591 1586 1580 1575 1568 1562 1556 1550 1543 1536 1530 1523 1516 1509 1502 1495 1489 1483 1477 1473 1468 1461 1456
1616 1614 1610 1613 1601 1584 1586 1597 1599 1602 1597 1602 1603 1604 1604 1603 1598 1600 1599 1596 1593 1589 1584 1579 1573 1568 1561 1555 1548 1542 1535 1528 1521 1514 1507 1500 1493 1487 1481 1476 1471 1466 1461 1456
1611 1611 1609 1608 1601 1579 1592 1596 1600 1596 1592 1600 1601 1602 1602 1601 1602 1601 1597 1595 1592 1588 1583 1578 1573 1567 1560 1553 1547 1541 1534 1527 1520 1512 1505 1498 1491 1485 1479 1474 1469 1464 1460 1455
1596 1598 1599 1601 1597 1586 1591 1594 1594 1592 1595 1598 1599 1600 1600 1599 1598 1597 1596 1593 1590 1587 1582 1577 1572 1566 1560 1553 1546 1539 1533 1526 1518 1510 1503 1496 1490 1484 1478 1473 1468 1463 1459 1455
1593 1589 1585 1587 1582 1583 1586 1587 1590 1592 1594 1596 1597 1597 1597 1597 1596 1595 1594 1592 1589 1585 1581 1576 1571 1565 1559 1553 1546 1539 1532 1524 1516 1508 1502 1495 1489 1483 1478 1473 1468 1463 1459 1455
1588 1589 1588 1584 1578 1582 1584 1586 1588 1591 1592 1594 1594 1595 1595 1595 1594 1594 1592 1590 1588 1584 1580 1575 1570 1564 1558 1552 1546 1539 1531 1523 1515 1507 1500 1494 1488 1483 1478 1473 1468 1463 1458 1454
1577 1583 1582 1578 1577 1579 1581 1583 1586 1588 1590 1592 1592 1592 1593 1593 1593 1592 1591 1589 1587 1583 1579 1574 1569 1564 1558 1552 1546 1539 1531 1522 1514 1507 1500 1494 1489 1483 1478 1473 1468 1463 1458 1455
1571 1571 1570 1566 1567 1572 1575 1579 1583 1586 1588 1590 1590 1590 1591 1591 1591 1591 1590 1588 1586 1583 1578 1574 1569 1563 1558 1552 1546 1539 1531 1523 1514 1507 1500 1495 1489 1484 1478 1472 1467 1463 1459 1454